| time (UTC) | temp F | wind direction | speed MPH | gust MPH | rain 1hr in | rain 24hr in | rain mn in | humidity % | barometer mb |
| 20260503204001 | 67 | 0 | 3.0 | 9.0 | 0.00 | 0.00 | 0.00 | 65 | 1012.8 |
| 20260503203501 | 68 | 0 | 3.0 | 9.0 | 0.00 | 0.00 | 0.00 | 65 | 1012.8 |
| 20260503203000 | 68 | 0 | 3.0 | 8.0 | 0.00 | 0.00 | 0.00 | 65 | 1012.8 |
| 20260503202500 | 68 | 0 | 3.0 | 8.0 | 0.00 | 0.00 | 0.00 | 66 | 1012.9 |
| 20260503201959 | 68 | 0 | 2.0 | 6.0 | 0.00 | 0.00 | 0.00 | 65 | 1012.9 |
| 20260503201459 | 67 | 0 | 2.0 | 8.0 | 0.00 | 0.00 | 0.00 | 68 | 1012.9 |
| 20260503200957 | 67 | 0 | 3.0 | 9.0 | 0.00 | 0.00 | 0.00 | 67 | 1013.0 |
| 20260503200455 | 67 | 0 | 4.0 | 9.0 | 0.00 | 0.00 | 0.00 | 67 | 1013.0 |
| 20260503195951 | 66 | 0 | 3.0 | 8.0 | 0.00 | 0.00 | 0.00 | 67 | 1013.1 |
| 20260503195449 | 66 | 0 | 3.0 | 9.0 | 0.00 | 0.00 | 0.00 | 67 | 1013.1 |
| 20260503195219 | 66 | 0 | 3.0 | 9.0 | 0.00 | 0.00 | 0.00 | 69 | 1013.2 |
| 20260503194450 | 66 | 0 | 2.0 | 6.0 | 0.00 | 0.00 | 0.00 | 68 | 1013.2 |
| 20260503194219 | 66 | 0 | 3.0 | 9.0 | 0.00 | 0.00 | 0.00 | 69 | 1013.3 |
| 20260503193447 | 66 | 0 | 4.0 | 9.0 | 0.00 | 0.00 | 0.00 | 70 | 1013.4 |
| 20260503192948 | 66 | 0 | 4.0 | 9.0 | 0.00 | 0.00 | 0.00 | 71 | 1013.5 |
| 20260503192713 | 65 | 0 | 3.0 | 9.0 | 0.00 | 0.00 | 0.00 | 71 | 1013.6 |
| 20260503191941 | 65 | 0 | 3.0 | 6.0 | 0.00 | 0.00 | 0.00 | 72 | 1013.5 |
| 20260503191441 | 64 | 0 | 3.0 | 8.0 | 0.00 | 0.00 | 0.00 | 74 | 1013.6 |
| 20260503190935 | 64 | 0 | 2.0 | 8.0 | 0.00 | 0.00 | 0.00 | 73 | 1013.6 |
| 20260503190435 | 63 | 0 | 2.0 | 6.0 | 0.00 | 0.00 | 0.00 | 74 | 1013.8 |
| 20260503185935 | 63 | 0 | 2.0 | 5.0 | 0.00 | 0.00 | 0.00 | 74 | 1013.8 |
| 20260503185429 | 63 | 0 | 2.0 | 5.0 | 0.00 | 0.00 | 0.00 | 75 | 1013.8 |
| 20260503185200 | 62 | 0 | 2.0 | 6.0 | 0.00 | 0.00 | 0.00 | 77 | 1013.8 |
| 20260503184428 | 62 | 0 | 2.0 | 6.0 | 0.00 | 0.00 | 0.00 | 78 | 1013.9 |
| 20260503184154 | 61 | 0 | 2.0 | 5.0 | 0.00 | 0.00 | 0.00 | 79 | 1013.9 |
| 20260503183423 | 61 | 0 | 2.0 | 5.0 | 0.00 | 0.00 | 0.00 | 80 | 1014.0 |
| 20260503182417 | 60 | 0 | 3.0 | 8.0 | 0.00 | 0.00 | 0.00 | 82 | 1014.0 |
| 20260503181917 | 60 | 0 | 3.0 | 8.0 | 0.00 | 0.00 | 0.00 | 83 | 1014.0 |
| 20260503181417 | 60 | 0 | 2.0 | 5.0 | 0.00 | 0.00 | 0.00 | 84 | 1013.9 |
| 20260503180911 | 60 | 0 | 2.0 | 6.0 | 0.00 | 0.00 | 0.00 | 85 | 1014.0 |
| 20260503180411 | 60 | 0 | 3.0 | 8.0 | 0.00 | 0.00 | 0.00 | 84 | 1014.1 |
| 20260503175912 | 61 | 0 | 3.0 | 9.0 | 0.00 | 0.00 | 0.00 | 83 | 1014.0 |
| 20260503175404 | 61 | 0 | 3.0 | 8.0 | 0.00 | 0.00 | 0.00 | 82 | 1014.0 |
| 20260503174905 | 62 | 0 | 2.0 | 8.0 | 0.00 | 0.00 | 0.00 | 81 | 1014.0 |
| 20260503173903 | 62 | 0 | 2.0 | 6.0 | 0.00 | 0.00 | 0.00 | 80 | 1013.8 |
| 20260503173402 | 62 | 0 | 1.0 | 4.0 | 0.00 | 0.00 | 0.00 | 80 | 1013.8 |
| 20260503172857 | 61 | 0 | 1.0 | 4.0 | 0.00 | 0.00 | 0.00 | 81 | 1013.7 |
| 20260503172358 | 61 | 0 | 2.0 | 5.0 | 0.00 | 0.00 | 0.00 | 80 | 1013.7 |
| 20260503171857 | 61 | 0 | 2.0 | 5.0 | 0.00 | 0.00 | 0.00 | 80 | 1013.6 |
| 20260503171354 | 61 | 0 | 1.0 | 5.0 | 0.00 | 0.00 | 0.00 | 80 | 1013.6 |
| 20260503171124 | 61 | 0 | 1.0 | 4.0 | 0.00 | 0.00 | 0.00 | 81 | 1013.5 |
| 20260503170353 | 61 | 0 | 1.0 | 4.0 | 0.00 | 0.00 | 0.00 | 81 | 1013.5 |
| 20260503150813 | 57 | 0 | 0.0 | 0.0 | 0.00 | 0.00 | 0.00 | 90 | 1013.0 |
| 20260503150311 | 57 | 0 | 0.0 | 0.0 | 0.00 | 0.00 | 0.00 | 90 | 1012.9 |
| 20260503131242 | 56 | 0 | 0.0 | 2.0 | 0.00 | 0.00 | 0.00 | 90 | 1012.3 |
| 20260503130742 | 57 | 0 | 0.0 | 0.0 | 0.00 | 0.00 | 0.00 | 90 | 1012.2 |
| 20260503130243 | 57 | 0 | 0.0 | 0.0 | 0.00 | 0.00 | 0.00 | 90 | 1012.1 |
| 20260503110442 | 58 | 0 | 2.0 | 8.0 | 0.00 | 0.00 | 0.00 | 89 | 1011.7 |
| 20260503100151 | 58 | 0 | 2.0 | 4.0 | 0.00 | 0.00 | 0.00 | 89 | 1011.9 |
| 20260503090130 | 59 | 0 | 3.0 | 6.0 | 0.00 | 0.00 | 0.00 | 88 | 1012.2 |
| 20260503081612 | 59 | 0 | 2.0 | 5.0 | 0.00 | 0.00 | 0.00 | 87 | 1012.5 |
| 20260503081111 | 59 | 0 | 2.0 | 5.0 | 0.00 | 0.00 | 0.00 | 87 | 1012.5 |
| 20260503080607 | 59 | 0 | 1.0 | 5.0 | 0.00 | 0.00 | 0.00 | 87 | 1012.5 |
| 20260503080106 | 59 | 0 | 0.0 | 0.0 | 0.00 | 0.00 | 0.00 | 87 | 1012.5 |
| 20260503072559 | 59 | 0 | 0.0 | 8.0 | 0.00 | 0.00 | 0.00 | 87 | 1012.3 |
| 20260503072330 | 59 | 0 | 0.0 | 0.0 | 0.00 | 0.00 | 0.00 | 87 | 1012.2 |
| 20260503071558 | 59 | 0 | 0.0 | 0.0 | 0.00 | 0.00 | 0.00 | 87 | 1012.2 |
| 20260503071329 | 59 | 0 | 0.0 | 2.0 | 0.00 | 0.00 | 0.00 | 86 | 1011.9 |
| 20260503070829 | 59 | 0 | 1.0 | 6.0 | 0.00 | 0.00 | 0.00 | 86 | 1012.1 |
| 20260503070330 | 60 | 0 | 2.0 | 6.0 | 0.00 | 0.00 | 0.00 | 86 | 1012.1 |
| 20260503055053 | 60 | 0 | 1.0 | 3.0 | 0.00 | 0.00 | 0.00 | 84 | 1011.8 |
| 20260503054552 | 60 | 0 | 1.0 | 3.0 | 0.00 | 0.00 | 0.00 | 84 | 1011.8 |
| 20260503053548 | 60 | 0 | 1.0 | 3.0 | 0.00 | 0.00 | 0.00 | 84 | 1011.9 |
| 20260503053046 | 60 | 0 | 1.0 | 5.0 | 0.00 | 0.00 | 0.00 | 83 | 1011.9 |
| 20260503052547 | 60 | 0 | 2.0 | 5.0 | 0.00 | 0.00 | 0.00 | 83 | 1012.1 |
| 20260503052040 | 60 | 0 | 3.0 | 5.0 | 0.00 | 0.00 | 0.00 | 83 | 1012.0 |
| 20260503051541 | 60 | 0 | 2.0 | 5.0 | 0.00 | 0.00 | 0.00 | 83 | 1012.0 |
| 20260503051042 | 60 | 0 | 1.0 | 5.0 | 0.00 | 0.00 | 0.00 | 82 | 1012.1 |
| 20260503050541 | 60 | 0 | 1.0 | 3.0 | 0.00 | 0.00 | 0.00 | 82 | 1012.1 |
| 20260503045542 | 61 | 0 | 1.0 | 4.0 | 0.00 | 0.00 | 0.00 | 82 | 1011.9 |
| 20260503045042 | 61 | 0 | 1.0 | 4.0 | 0.00 | 0.00 | 0.00 | 81 | 1011.9 |
| 20260503044541 | 61 | 0 | 1.0 | 4.0 | 0.00 | 0.00 | 0.00 | 81 | 1011.9 |
| 20260503044041 | 61 | 0 | 1.0 | 5.0 | 0.00 | 0.00 | 0.00 | 81 | 1011.9 |
| 20260503043541 | 61 | 0 | 1.0 | 5.0 | 0.00 | 0.00 | 0.00 | 81 | 1011.8 |
| 20260503043039 | 61 | 0 | 2.0 | 5.0 | 0.00 | 0.00 | 0.00 | 80 | 1011.8 |
| 20260503042534 | 61 | 0 | 3.0 | 6.0 | 0.00 | 0.00 | 0.00 | 81 | 1011.7 |
| 20260503042035 | 62 | 0 | 2.0 | 6.0 | 0.00 | 0.00 | 0.00 | 80 | 1011.6 |
| 20260503041534 | 62 | 0 | 3.0 | 6.0 | 0.00 | 0.00 | 0.00 | 80 | 1011.5 |
| 20260503041028 | 62 | 0 | 3.0 | 6.0 | 0.00 | 0.00 | 0.00 | 80 | 1011.5 |
| 20260503040758 | 62 | 0 | 3.0 | 6.0 | 0.00 | 0.00 | 0.00 | 80 | 1011.4 |
| 20260503040256 | 62 | 0 | 2.0 | 6.0 | 0.00 | 0.00 | 0.00 | 79 | 1011.4 |
| 20260503035520 | 62 | 0 | 2.0 | 6.0 | 0.00 | 0.00 | 0.00 | 79 | 1011.2 |
| 20260503035249 | 62 | 0 | 3.0 | 8.0 | 0.00 | 0.00 | 0.00 | 78 | 1011.1 |
| 20260503034519 | 63 | 0 | 3.0 | 8.0 | 0.00 | 0.00 | 0.00 | 78 | 1011.1 |
| 20260503034012 | 63 | 0 | 3.0 | 8.0 | 0.00 | 0.00 | 0.00 | 77 | 1011.0 |
| 20260503033512 | 63 | 0 | 3.0 | 8.0 | 0.00 | 0.00 | 0.00 | 77 | 1010.8 |
| 20260503033011 | 63 | 0 | 4.0 | 8.0 | 0.00 | 0.00 | 0.00 | 76 | 1010.7 |
| 20260503032506 | 64 | 0 | 4.0 | 8.0 | 0.00 | 0.00 | 0.00 | 76 | 1010.7 |
| 20260503032004 | 64 | 0 | 3.0 | 8.0 | 0.00 | 0.00 | 0.00 | 75 | 1010.7 |
| 20260503031504 | 64 | 0 | 3.0 | 8.0 | 0.00 | 0.00 | 0.00 | 74 | 1010.6 |
| 20260503031005 | 64 | 0 | 3.0 | 8.0 | 0.00 | 0.00 | 0.00 | 74 | 1010.6 |
| 20260503030504 | 65 | 0 | 4.0 | 10.0 | 0.00 | 0.00 | 0.00 | 74 | 1010.5 |
| 20260503025458 | 65 | 0 | 3.0 | 5.0 | 0.00 | 0.00 | 0.00 | 73 | 1010.3 |
| 20260503024958 | 65 | 0 | 4.0 | 11.0 | 0.00 | 0.00 | 0.00 | 72 | 1010.2 |
| 20260503024456 | 66 | 0 | 4.0 | 11.0 | 0.00 | 0.00 | 0.00 | 72 | 1010.1 |
| 20260503023956 | 66 | 0 | 2.0 | 8.0 | 0.00 | 0.00 | 0.00 | 70 | 1010.0 |
| 20260503023454 | 67 | 0 | 3.0 | 6.0 | 0.00 | 0.00 | 0.00 | 70 | 1010.0 |
| 20260503022954 | 67 | 0 | 4.0 | 11.0 | 0.00 | 0.00 | 0.00 | 69 | 1009.9 |
| 20260503022454 | 67 | 0 | 3.0 | 11.0 | 0.00 | 0.00 | 0.00 | 68 | 1009.8 |
| 20260503021948 | 68 | 0 | 3.0 | 9.0 | 0.00 | 0.00 | 0.00 | 68 | 1009.7 |
| 20260503021448 | 69 | 0 | 4.0 | 9.0 | 0.00 | 0.00 | 0.00 | 67 | 1009.6 |
| 20260503020948 | 69 | 0 | 4.0 | 9.0 | 0.00 | 0.00 | 0.00 | 66 | 1009.6 |
| 20260503020446 | 70 | 0 | 4.0 | 9.0 | 0.00 | 0.00 | 0.00 | 65 | 1009.6 |
| 20260503015945 | 70 | 0 | 4.0 | 9.0 | 0.00 | 0.00 | 0.00 | 64 | 1009.6 |
| 20260503015440 | 71 | 0 | 3.0 | 9.0 | 0.00 | 0.00 | 0.00 | 63 | 1009.6 |
| 20260503014940 | 72 | 0 | 3.0 | 8.0 | 0.00 | 0.00 | 0.00 | 63 | 1009.6 |
| 20260503014711 | 72 | 0 | 3.0 | 8.0 | 0.00 | 0.00 | 0.00 | 61 | 1009.5 |
| 20260503013935 | 73 | 0 | 3.0 | 8.0 | 0.00 | 0.00 | 0.00 | 61 | 1009.5 |
| 20260503013704 | 73 | 0 | 3.0 | 6.0 | 0.00 | 0.00 | 0.00 | 62 | 1009.4 |
| 20260503012934 | 73 | 0 | 4.0 | 9.0 | 0.00 | 0.00 | 0.00 | 61 | 1009.4 |
| 20260503012427 | 73 | 0 | 4.0 | 9.0 | 0.00 | 0.00 | 0.00 | 60 | 1009.5 |
| 20260503011928 | 73 | 0 | 4.0 | 9.0 | 0.00 | 0.00 | 0.00 | 60 | 1009.5 |
| 20260503011429 | 74 | 0 | 4.0 | 9.0 | 0.00 | 0.00 | 0.00 | 60 | 1009.4 |
| 20260503010922 | 74 | 0 | 3.0 | 8.0 | 0.00 | 0.00 | 0.00 | 59 | 1009.4 |
| 20260503010422 | 75 | 0 | 3.0 | 8.0 | 0.00 | 0.00 | 0.00 | 58 | 1009.4 |
| 20260503005923 | 75 | 0 | 3.0 | 6.0 | 0.00 | 0.00 | 0.00 | 58 | 1009.4 |
| 20260503005417 | 75 | 0 | 3.0 | 6.0 | 0.00 | 0.00 | 0.00 | 58 | 1009.5 |
| 20260503004916 | 75 | 0 | 3.0 | 9.0 | 0.00 | 0.00 | 0.00 | 59 | 1009.5 |
| 20260503004415 | 75 | 0 | 3.0 | 9.0 | 0.00 | 0.00 | 0.00 | 58 | 1009.5 |
| 20260503004141 | 75 | 0 | 2.0 | 8.0 | 0.00 | 0.00 | 0.00 | 58 | 1009.5 |
| 20260503003410 | 76 | 0 | 3.0 | 10.0 | 0.00 | 0.00 | 0.00 | 58 | 1009.6 |
| 20260503002910 | 76 | 0 | 4.0 | 10.0 | 0.00 | 0.00 | 0.00 | 58 | 1009.6 |
| 20260503002404 | 76 | 0 | 3.0 | 9.0 | 0.00 | 0.00 | 0.00 | 58 | 1009.6 |
| 20260503001903 | 76 | 0 | 3.0 | 10.0 | 0.00 | 0.00 | 0.00 | 58 | 1009.7 |
| 20260503001403 | 76 | 0 | 3.0 | 10.0 | 0.00 | 0.00 | 0.00 | 58 | 1009.7 |
| 20260503000901 | 76 | 0 | 3.0 | 10.0 | 0.00 | 0.00 | 0.00 | 58 | 1009.6 |
| 20260503000402 | 76 | 0 | 4.0 | 10.0 | 0.00 | 0.00 | 0.00 | 58 | 1009.6 |
| 20260502235900 | 76 | 0 | 5.0 | 10.0 | 0.00 | 0.00 | 0.00 | 58 | 1009.6 |
| 20260502235400 | 76 | 0 | 4.0 | 10.0 | 0.00 | 0.00 | 0.00 | 59 | 1009.6 |
| 20260502234856 | 76 | 0 | 4.0 | 9.0 | 0.00 | 0.00 | 0.00 | 58 | 1009.6 |
| 20260502234357 | 76 | 0 | 4.0 | 11.0 | 0.00 | 0.00 | 0.00 | 58 | 1009.6 |
| 20260502234120 | 76 | 0 | 4.0 | 11.0 | 0.00 | 0.00 | 0.00 | 58 | 1009.6 |
| 20260502233350 | 77 | 0 | 4.0 | 12.0 | 0.00 | 0.00 | 0.00 | 58 | 1009.7 |
| 20260502232848 | 76 | 0 | 4.0 | 12.0 | 0.00 | 0.00 | 0.00 | 58 | 1009.6 |
| 20260502232349 | 76 | 0 | 5.0 | 11.0 | 0.00 | 0.00 | 0.00 | 58 | 1009.6 |
| 20260502231847 | 76 | 0 | 4.0 | 11.0 | 0.00 | 0.00 | 0.00 | 58 | 1009.6 |
| 20260502231345 | 76 | 0 | 4.0 | 10.0 | 0.00 | 0.00 | 0.00 | 58 | 1009.7 |
| 20260502230842 | 77 | 0 | 4.0 | 11.0 | 0.00 | 0.00 | 0.00 | 57 | 1009.7 |
| 20260502230342 | 77 | 0 | 4.0 | 11.0 | 0.00 | 0.00 | 0.00 | 56 | 1009.8 |
| 20260502225843 | 77 | 0 | 4.0 | 11.0 | 0.00 | 0.00 | 0.00 | 58 | 1009.9 |
| 20260502225608 | 77 | 0 | 4.0 | 10.0 | 0.00 | 0.00 | 0.00 | 57 | 1010.1 |
| 20260502224838 | 77 | 0 | 5.0 | 11.0 | 0.00 | 0.00 | 0.00 | 58 | 1010.1 |
| 20260502224338 | 77 | 0 | 4.0 | 11.0 | 0.00 | 0.00 | 0.00 | 58 | 1010.3 |
| 20260502223839 | 77 | 0 | 5.0 | 13.0 | 0.00 | 0.00 | 0.00 | 58 | 1010.3 |
| 20260502223334 | 76 | 0 | 5.0 | 13.0 | 0.00 | 0.00 | 0.00 | 60 | 1010.4 |
| 20260502223105 | 76 | 0 | 5.0 | 13.0 | 0.00 | 0.00 | 0.00 | 59 | 1010.5 |
| 20260502222334 | 76 | 0 | 5.0 | 13.0 | 0.00 | 0.00 | 0.00 | 58 | 1010.6 |
| 20260502221833 | 77 | 0 | 4.0 | 10.0 | 0.00 | 0.00 | 0.00 | 57 | 1010.7 |
| 20260502221334 | 77 | 0 | 4.0 | 12.0 | 0.00 | 0.00 | 0.00 | 57 | 1010.7 |
| 20260502220835 | 77 | 0 | 5.0 | 12.0 | 0.00 | 0.00 | 0.00 | 57 | 1010.8 |
| 20260502220334 | 77 | 0 | 5.0 | 15.0 | 0.00 | 0.00 | 0.00 | 57 | 1010.8 |
| 20260502215830 | 77 | 0 | 6.0 | 15.0 | 0.00 | 0.00 | 0.00 | 57 | 1010.9 |
| 20260502215601 | 77 | 0 | 6.0 | 12.0 | 0.00 | 0.00 | 0.00 | 57 | 1011.0 |
| 20260502214826 | 76 | 0 | 4.0 | 10.0 | 0.00 | 0.00 | 0.00 | 58 | 1011.0 |
| 20260502214325 | 77 | 0 | 4.0 | 10.0 | 0.00 | 0.00 | 0.00 | 58 | 1011.2 |
| 20260502213825 | 76 | 0 | 5.0 | 10.0 | 0.00 | 0.00 | 0.00 | 59 | 1011.3 |
| 20260502213326 | 76 | 0 | 6.0 | 11.0 | 0.00 | 0.00 | 0.00 | 59 | 1011.4 |
| 20260502212821 | 76 | 0 | 4.0 | 11.0 | 0.00 | 0.00 | 0.00 | 60 | 1011.4 |
| 20260502212319 | 76 | 0 | 4.0 | 10.0 | 0.00 | 0.00 | 0.00 | 59 | 1011.5 |
| 20260502212049 | 76 | 0 | 4.0 | 10.0 | 0.00 | 0.00 | 0.00 | 60 | 1011.6 |
| 20260502211314 | 76 | 0 | 5.0 | 12.0 | 0.00 | 0.00 | 0.00 | 60 | 1011.5 |
| 20260502210814 | 76 | 0 | 4.0 | 12.0 | 0.00 | 0.00 | 0.00 | 61 | 1011.4 |
| 20260502210313 | 75 | 0 | 4.0 | 11.0 | 0.00 | 0.00 | 0.00 | 62 | 1011.5 |
| 20260502205814 | 75 | 0 | 4.0 | 11.0 | 0.00 | 0.00 | 0.00 | 61 | 1011.5 |
| 20260502205313 | 74 | 0 | 4.0 | 10.0 | 0.00 | 0.00 | 0.00 | 63 | 1011.6 |
| 20260502204810 | 75 | 0 | 5.0 | 10.0 | 0.00 | 0.00 | 0.00 | 61 | 1011.6 |